Flag for Netherlands Weather past 2 weeks in Ede, Netherlands

Now
45 °F

Scattered clouds.


Feels Like: 36 °F
Forecast: 36 / 46 °F
Wind: 21 mph from Northwest

Location: Deelen

Current Time: Apr 1, 2015 at 3:21:05 PM

Latest Report: Apr 1, 2015 at 2:55 PM


Visibility: N/A

Pressure: 30.04 "Hg

Humidity: 66%

Dew point: 34 °F

Location of EdeLocation

Historic Weather in Ede — Graph

°F

Ede temperature yesterday

Maximum temperature yesterday: 50 °F (at 4:55 AM)
Minimum temperature yesterday: 39 °F (at 12:25 AM)
Average temperature yesterday: 47 °F

Past Weeks' High & Low Weather Summary

 TemperatureHumidityPressure
High63 °F (Mar 17, 1:55 PM)100% (Mar 18, 3:25 AM)30.39 "Hg (Mar 18, 3:25 AM)
Low25 °F (Mar 24, 3:55 AM)39% (Mar 17, 1:55 PM)29.15 "Hg (Mar 29, 6:55 PM)
Average42 °F83%29.93 "Hg
* Reported Mar 17 12:25 PM — Apr 1 1:55 PM, Ede, Weather by CustomWeather, © 2015

Note: Actual official high and low records may vary slightly from our data, if they occured in-between our weather recording intervals... More about our weather records

Advertising

Ede weather history for previous 24 hours

 ConditionsComfort  
Time TempWeatherWind HumidityBarometerVisibility
1:55 PM
Wed, Apr 1
41 °FLight rain. Broken clouds.21 mph81%30.04 "HgN/A
1:25 PM43 °FLight rain. Broken clouds.20 mph76%30.01 "HgN/A
12:55 PM43 °FScattered clouds.18 mph76%30.01 "HgN/A
12:25 PM37 °FSprinkles. Broken clouds.15 mph93%30.01 "HgN/A
11:55 AM39 °FRain. Partly sunny.18 mph81%30.01 "HgN/A
11:25 AM39 °FLight rain. Broken clouds.17 mph81%30.01 "HgN/A
10:55 AM45 °FBroken clouds.16 mph71%29.98 "HgN/A
10:25 AM43 °FPartly sunny.13 mph76%29.98 "HgN/A
9:55 AM43 °FBroken clouds.13 mph81%29.98 "HgN/A
9:25 AM41 °FPassing clouds.12 mph81%29.98 "HgN/A
8:55 AM39 °FPassing clouds.10 mph87%29.95 "HgN/A
8:25 AM39 °FLight rain. Broken clouds.13 mph87%29.95 "HgN/A
7:55 AM37 °FLight rain. Partly cloudy.14 mph87%29.95 "Hg2 mi
7:25 AM39 °FMostly cloudy.9 mph81%29.89 "HgN/A
6:55 AM39 °FMostly cloudy.8 mph81%29.89 "HgN/A
6:25 AM37 °FPassing clouds.15 mph81%29.86 "HgN/A
5:55 AM39 °FPassing clouds.15 mph75%29.86 "HgN/A
5:25 AM37 °FPassing clouds.10 mph87%29.86 "HgN/A
4:55 AM37 °FPassing clouds.16 mph87%29.83 "HgN/A
4:25 AM37 °FPartly cloudy.17 mph87%29.83 "HgN/A
3:55 AM39 °FLight rain. Partly cloudy.21 mph75%29.80 "HgN/A
3:25 AM41 °FPassing clouds.20 mph66%29.80 "HgN/A
2:55 AM41 °FPartly cloudy.20 mph70%29.80 "HgN/A
2:25 AM41 °FPartly cloudy.17 mph70%29.80 "HgN/A
1:55 AM41 °FPartly cloudy.17 mph70%29.80 "HgN/A
1:25 AM41 °FPartly cloudy.20 mph66%29.80 "HgN/A
12:55 AM43 °FPartly cloudy.17 mph61%29.77 "HgN/A
12:25 AM43 °FPartly cloudy.18 mph61%29.77 "HgN/A
11:55 PM
Tue, Mar 31
43 °FPassing clouds.15 mph61%29.77 "HgN/A
11:25 PM43 °FPassing clouds.18 mph61%29.77 "HgN/A
10:55 PM43 °FPartly cloudy.17 mph66%29.77 "HgN/A
10:25 PM43 °FOvercast.18 mph66%29.74 "HgN/A
9:55 PM43 °FPassing clouds.16 mph71%29.74 "HgN/A
9:25 PM43 °FPassing clouds.17 mph71%29.74 "HgN/A
8:55 PM41 °FScattered clouds.13 mph81%29.74 "HgN/A
8:25 PM43 °FDrizzle. Broken clouds.22 mph71%29.71 "HgN/A
7:55 PM46 °FPartly sunny.21 mph62%29.71 "HgN/A
7:25 PM46 °FBroken clouds.23 mph62%29.68 "HgN/A
6:55 PM46 °FScattered clouds.22 mph62%29.68 "HgN/A
6:25 PM46 °FBroken clouds.26 mph66%29.68 "HgN/A
5:55 PM48 °FLight rain. Broken clouds.25 mph62%29.65 "HgN/A
5:25 PM50 °FBroken clouds.24 mph50%29.65 "HgN/A
4:55 PM50 °FBroken clouds.28 mph47%29.62 "HgN/A
4:25 PM50 °FPartly sunny.37 mph47%29.62 "HgN/A
3:55 PM50 °FBroken clouds.26 mph47%29.59 "HgN/A
3:25 PM48 °FBroken clouds.26 mph54%29.59 "HgN/A
Weather by CustomWeather, © 2015

See weather overviewHow to use our weather pages